Weather History for KBGR - December, 2011

Change the Weather History Date:

Tuesday, December 20, 2011

  Actual Average Record
Temperature  
Mean Temperature 24 °F 23 °F  
Max Temperature 37 °F 32 °F 54 °F (2002)
Min Temperature 10 °F 13 °F -21 °F (1975)
Degree Days  
Heating Degree Days 41 42  
Month to date heating degree days 660 763  
Since 1 July heating degree days 1948 2432  
Cooling Degree Days 0 0  
Month to date cooling degree days 0 0  
Year to date cooling degree days 348 318  
Moisture  
Dew Point 11 °F    
Average Humidity 54    
Maximum Humidity 76    
Minimum Humidity 32    
Precipitation  
Precipitation T in 0.10 in 1.40 in (2002)
Month to date precipitation 2.04 2.41  
Year to date precipitation 42.51 40.86  
Snow  
Snow T in 0.50 in 8.50 in (1961)
Month to date snowfall 2.2 8.5  
Since 1 July snowfall 17.8 10.9  
Snow Depth 0.00 in    
Sea Level Pressure  
Sea Level Pressure 30.02 in    
Wind  
Wind Speed 9 mph (NW)    
Max Wind Speed 26 mph    
Max Gust Speed 32 mph    
Visibility 9 miles    
Events Snow    
T = Trace of Precipitation, MM = Missing Value Source: NWS Daily Summary

Daily Weather History Graph

Daily Weather History Graph

Search for Another Location

Airport or City:

Trip Planner

Search our weather history database for the weather conditions in past years. The results will help you decide how hot, cold, wet, or windy it might be!

Date:

Astronomy

Dec. 20, 2011 Rise Set
Actual Time 7:08 AM EST 3:56 PM EST
Civil Twilight 6:35 AM EST 4:30 PM EST
Nautical Twilight 5:58 AM EST 5:07 PM EST
Astronomical Twilight 5:22 AM EST 5:43 PM EST
Moon 2:19 AM EST (12/20) 12:35 PM EST (12/20)
Length of Visible Light 9h 55m
Length of Day
8h 47m
Waning Crescent, 21% of the Moon is Illuminated
Dec 20
Waning Crescent
Dec 24
New
Jan 1
First Quarter
Jan 9
Full
Jan 16
Last Quarter

Hourly Weather History & Observations

Time (EST) Temp. Windchill Dew Point Humidity Pressure Visibility Wind Dir Wind Speed Gust Speed Precip Events Conditions
12:53 AM 36.0 °F - 24.1 °F 62% 29.72 in 10.0 mi Calm Calm - N/A   Overcast
1:22 AM 35.6 °F 26.6 °F 24.8 °F 65% 29.75 in 5.0 mi NW 13.8 mph - 0.00 in   Small Hail
1:26 AM 33.8 °F 25.3 °F 26.6 °F 75% 29.75 in 2.5 mi WNW 11.5 mph 20.7 mph 0.00 in Snow Light Snow
1:34 AM 33.8 °F 27.0 °F 26.6 °F 75% 29.75 in 6.0 mi WNW 8.1 mph 16.1 mph 0.00 in Snow Light Snow
1:53 AM 33.1 °F 28.7 °F 26.1 °F 75% 29.77 in 9.0 mi WNW 4.6 mph - 0.00 in   Mostly Cloudy
2:53 AM 32.0 °F 24.8 °F 24.1 °F 73% 29.80 in 10.0 mi NW 8.1 mph - N/A   Mostly Cloudy
3:53 AM 33.1 °F 25.5 °F 23.0 °F 66% 29.82 in 10.0 mi NW 9.2 mph - N/A   Overcast
4:53 AM 32.0 °F 23.0 °F 19.0 °F 59% 29.85 in 10.0 mi NW 11.5 mph - N/A   Mostly Cloudy
5:53 AM 28.9 °F 15.8 °F 15.1 °F 56% 29.90 in 10.0 mi NW 20.7 mph 26.5 mph N/A   Clear
6:53 AM 26.1 °F 13.6 °F 12.0 °F 55% 29.96 in 10.0 mi NW 16.1 mph 23.0 mph N/A   Partly Cloudy
7:53 AM 24.1 °F 9.0 °F 9.0 °F 53% 30.01 in 10.0 mi NW 21.9 mph 28.8 mph N/A   Partly Cloudy
8:53 AM 24.1 °F 10.6 °F 6.1 °F 46% 30.05 in 10.0 mi NW 17.3 mph 28.8 mph N/A   Partly Cloudy
9:53 AM 23.0 °F 9.2 °F 6.1 °F 48% 30.07 in 10.0 mi NW 17.3 mph 27.6 mph N/A   Scattered Clouds
10:53 AM 23.0 °F 7.2 °F 5.0 °F 46% 30.09 in 10.0 mi NW 23.0 mph 27.6 mph N/A   Partly Cloudy
11:53 AM 25.0 °F 12.2 °F 3.0 °F 39% 30.11 in 10.0 mi NW 16.1 mph 25.3 mph N/A   Partly Cloudy
12:53 PM 24.8 °F 14.0 °F 1.4 °F 36% 30.10 in 10.0 mi WNW 11.5 mph 17.3 mph N/A   Clear
1:53 PM 26.1 °F 14.5 °F -0.0 °F 32% 30.11 in 10.0 mi NW 13.8 mph - N/A   Clear
2:53 PM 25.0 °F 14.8 °F -0.0 °F 34% 30.13 in 10.0 mi NW 10.4 mph - N/A   Clear
3:53 PM 24.1 °F 18.2 °F -0.0 °F 35% 30.15 in 10.0 mi Variable 4.6 mph - N/A   Partly Cloudy
4:53 PM 21.0 °F 16.2 °F 1.0 °F 42% 30.17 in 10.0 mi West 3.5 mph - N/A   Clear
5:53 PM 21.0 °F 14.6 °F 1.0 °F 42% 30.21 in 10.0 mi NW 4.6 mph - N/A   Clear
6:53 PM 15.1 °F - 3.9 °F 61% 30.19 in 10.0 mi Calm Calm - N/A   Clear
7:53 PM 12.9 °F - 5.0 °F 71% 30.21 in 10.0 mi Calm Calm - N/A   Clear
8:53 PM 12.0 °F - 3.9 °F 70% 30.23 in 10.0 mi Calm Calm - N/A   Clear
9:53 PM 12.0 °F - 5.0 °F 73% 30.23 in 10.0 mi Calm Calm - N/A   Clear
10:53 PM 12.0 °F 5.9 °F 6.1 °F 77% 30.23 in 10.0 mi SW 3.5 mph - N/A   Clear
11:53 PM 10.9 °F - 6.1 °F 81% 30.21 in 10.0 mi Calm Calm - N/A   Clear